Tracking 28792 objects as of 23-Apr-2024
HD Live streaming from Space Station
objects crossing your sky now

SL-12 R/B(2)

Track SL-12 R/B(2) now!


NORAD ID: 16797
Int'l Code: 1986-044F
Perigee: 36,491.6 km
Apogee: 36,587.2 km
Inclination: 12.6 °
Period: 1,474.4 minutes
Semi major axis: 42910 km
RCS: 2.4859 m2 (large)
Launch date: June 10, 1986
Source: Commonwealth of Independent States (former USSR) (CIS)
Launch site: TYURATAM MISSILE AND SPACE COMPLEX (TTMTR)

Note: This is a ROCKET BODY
Your satellite tracking list
Your tracking list is empty




NASA's NSSDC Master Catalog

Two Line Element Set (TLE):
1 16797U 86044F   24113.08695383 -.00000112  00000-0  00000-0 0  9990
2 16797  12.5612 330.3091 0011138 177.1993 210.4594  0.97669666135176
Source of the keplerian elements: AFSPC